This is the latest recevied weather packets stored in our database for station/object W4NDF-13. If no packets are shown the sender has not sent any weather packets the latest 10 day(s).
| Time | Temp. | Humidity | Pressure | Rain* | Wind** | Luminosity | Snow |
|---|---|---|---|---|---|---|---|
| 1777755030 | 22.78° C | 42% | 1016.4 hPa | 0 mm | - | 594 W/m² | - |
| 1777754726 | 22.78° C | 43% | 1016.4 hPa | 0 mm | - | 607 W/m² | - |
| 1777754424 | 22.78° C | 44% | 1016.4 hPa | 0 mm | - | 619 W/m² | - |
| 1777754121 | 22.78° C | 45% | 1016.4 hPa | 0 mm | - | 632 W/m² | - |
| 1777753818 | 22.78° C | 45% | 1016.5 hPa | 0 mm | - | 644 W/m² | - |
| 1777753514 | 22.22° C | 46% | 1016.4 hPa | 0 mm | - | 655 W/m² | - |
| 1777753213 | 22.78° C | 48% | 1016.4 hPa | 0 mm | - | 666 W/m² | - |
| 1777752908 | 22.78° C | 49% | 1016.3 hPa | 0 mm | - | 676 W/m² | - |
| 1777752604 | 22.78° C | 50% | 1016.7 hPa | 0 mm | - | 688 W/m² | - |
| 1777752301 | 22.78° C | 51% | 1016.7 hPa | 0 mm | - | 698 W/m² | - |
| 1777751999 | 22.78° C | 50% | 1016.7 hPa | 0 mm | - | 708 W/m² | - |
| 1777751696 | 22.78° C | 52% | 1016.6 hPa | 0 mm | - | 717 W/m² | - |
| 1777751391 | 22.22° C | 55% | 1016.8 hPa | 0 mm | - | 726 W/m² | - |
| 1777751089 | 22.78° C | 53% | 1016.6 hPa | 0 mm | - | 735 W/m² | - |
| 1777750784 | 22.78° C | 54% | 1016.8 hPa | 0 mm | - | 743 W/m² | - |
| 1777750482 | 22.78° C | 55% | 1016.7 hPa | 0 mm | - | 751 W/m² | - |
| 1777750177 | 22.22° C | 55% | 1016.9 hPa | 0 mm | - | 758 W/m² | - |
| 1777749875 | 22.22° C | 55% | 1016.8 hPa | 0 mm | - | 767 W/m² | - |
| 1777749571 | 22.22° C | 56% | 1017 hPa | 0 mm | - | 777 W/m² | - |
| 1777749269 | 22.22° C | 57% | 1016.9 hPa | 0 mm | - | 776 W/m² | - |
| 1777748967 | 21.67° C | 58% | 1017.1 hPa | 0 mm | - | 814 W/m² | - |
| 1777748664 | 22.22° C | 59% | 1016.9 hPa | 0 mm | - | 819 W/m² | - |
| 1777748360 | 22.22° C | 59% | 1016.8 hPa | 0 mm | - | 453 W/m² | - |
| 1777748055 | 22.22° C | 58% | 1016.9 hPa | 0 mm | - | 820 W/m² | - |
| 1777747753 | 22.22° C | 60% | 1017 hPa | 0 mm | - | 822 W/m² | - |
* Rain latest hour (hover to see other rain measurements)
** Current wind speed in m/s (hover to see current wind gust speed)